Lake Murray Weather Center

Moon Phase Calendar



Lake Murray Water Level
Online Cameras

 


      

Current Conditions in Chapin
9/25/2022 5:01:30 PM

82°F
Feels Like 84
Clouds
Humidity
54%
Pressure
29.8"
Wind
10.6 mph (WSW)
Dew Point
64°F
UV Index
1/10 (Low)
Visibility
6 mi

Hourly Forecast

Date & Time Sun, Sep 25
5:00 PM
Sun, Sep 25
6:00 PM
Sun, Sep 25
7:00 PM
Sun, Sep 25
8:00 PM
Sun, Sep 25
9:00 PM
Sun, Sep 25
10:00 PM
Sun, Sep 25
11:00 PM
Mon, Sep 26
12:00 AM
Mon, Sep 26
1:00 AM
Mon, Sep 26
2:00 AM
Mon, Sep 26
3:00 AM
Mon, Sep 26
4:00 AM
Mon, Sep 26
5:00 AM
Mon, Sep 26
6:00 AM
Mon, Sep 26
7:00 AM
Mon, Sep 26
8:00 AM
Mon, Sep 26
9:00 AM
Mon, Sep 26
10:00 AM
Mon, Sep 26
11:00 AM
Mon, Sep 26
12:00 PM
Mon, Sep 26
1:00 PM
Mon, Sep 26
2:00 PM
Mon, Sep 26
3:00 PM
Mon, Sep 26
4:00 PM
Mon, Sep 26
5:00 PM
Mon, Sep 26
6:00 PM
Mon, Sep 26
7:00 PM
Mon, Sep 26
8:00 PM
Mon, Sep 26
9:00 PM
Mon, Sep 26
10:00 PM
Mon, Sep 26
11:00 PM
Tue, Sep 27
12:00 AM
Tue, Sep 27
1:00 AM
Tue, Sep 27
2:00 AM
Tue, Sep 27
3:00 AM
Tue, Sep 27
4:00 AM
Tue, Sep 27
5:00 AM
Tue, Sep 27
6:00 AM
Tue, Sep 27
7:00 AM
Tue, Sep 27
8:00 AM
Tue, Sep 27
9:00 AM
Tue, Sep 27
10:00 AM
Tue, Sep 27
11:00 AM
Tue, Sep 27
12:00 PM
Tue, Sep 27
1:00 PM
Tue, Sep 27
2:00 PM
Tue, Sep 27
3:00 PM
Tue, Sep 27
4:00 PM
Condition
Clouds

Clouds

Clouds

Clouds

Clouds

Clouds

Rain

Rain

Rain

Clouds

Clear

Clear

Clear

Clear

Clear

Clear

Clear

Clear

Clear

Clear

Clear

Clear

Clear

Clear

Clear

Clouds

Clouds

Clouds

Clouds

Clouds

Clouds

Clouds

Clouds

Clouds

Clouds

Clouds

Clouds

Clouds

Clouds

Clouds

Clear

Clear

Clear

Clear

Clear

Clouds

Clouds

Clouds
Temperature 82°F82°F81°F77°F74°F73°F68°F66°F65°F64°F64°F63°F63°F63°F63°F64°F69°F73°F79°F83°F86°F88°F88°F88°F86°F84°F76°F71°F68°F66°F63°F61°F60°F59°F57°F57°F56°F55°F54°F55°F63°F69°F73°F76°F79°F81°F81°F81°F
Feels Like 84°F83°F82°F77°F74°F73°F68°F66°F65°F65°F64°F64°F64°F64°F63°F64°F69°F73°F79°F82°F84°F85°F85°F84°F83°F81°F75°F69°F66°F64°F61°F60°F58°F57°F56°F55°F54°F53°F52°F53°F60°F67°F71°F74°F79°F79°F79°F79°F
Cloudiness 92%92%85%75%38%51%67%56%48%40%0%0%0%1%0%0%3%1%1%1%1%1%0%0%2%20%36%46%100%98%99%99%99%98%54%63%43%32%26%21%0%1%1%0%3%16%100%100%
Visibility 6 mi6 mi6 mi6 mi6 mi6 mi6 mi6 mi6 mi6 mi6 mi6 mi6 mi6 mi6 mi6 mi6 mi6 mi6 mi6 mi6 mi6 mi6 mi6 mi6 mi6 mi6 mi6 mi6 mi6 mi6 mi6 mi6 mi6 mi6 mi6 mi6 mi6 mi6 mi6 mi6 mi6 mi6 mi6 mi6 mi6 mi6 mi6 mi
Precipitation 0%0%0%17%35%39%59%59%62%54%0%0%0%0%0%0%0%0%0%0%0%0%0%0%0%0%0%0%0%0%0%0%0%0%0%0%0%0%0%0%0%0%0%0%0%0%0%0%
Humidity 54%51%53%59%62%62%78%85%88%90%92%94%94%93%91%86%72%57%46%40%34%27%22%20%20%22%30%34%36%41%46%50%52%54%55%55%55%56%56%54%41%31%25%22%19%17%17%17%
Dew Point 64°F63°F62°F61°F60°F59°F61°F61°F61°F61°F61°F62°F62°F61°F60°F59°F59°F57°F57°F56°F54°F50°F45°F42°F41°F41°F42°F41°F40°F41°F42°F42°F42°F42°F42°F41°F40°F39°F39°F39°F38°F37°F35°F34°F33°F32°F32°F32°F
Pressure 29.8"29.8"29.8"29.83"29.83"29.85"29.85"29.85"29.85"29.85"29.85"29.85"29.85"29.85"29.85"29.88"29.88"29.88"29.88"29.88"29.85"29.83"29.83"29.8"29.8"29.83"29.83"29.85"29.88"29.91"29.94"29.94"29.97"29.94"29.97"29.97"29.97"29.97"29.97"30"30"30.03"30.03"30.03"30"30"29.97"29.94"
Wind Speed 10.6 mph9.1 mph6.7 mph6.2 mph6.9 mph7.2 mph6.6 mph5.6 mph5.1 mph4.6 mph4.6 mph4.6 mph4.2 mph4.3 mph3.7 mph3.6 mph3.7 mph3.6 mph3 mph5.9 mph8.9 mph11.4 mph13 mph13.9 mph13.6 mph11.1 mph7.4 mph7.6 mph8.4 mph7.2 mph6.6 mph6.5 mph6.3 mph5.9 mph5.4 mph5.5 mph5.4 mph4.7 mph4.9 mph5.7 mph6.8 mph8 mph8.2 mph6.2 mph4.9 mph4.6 mph4.9 mph5.8 mph
Wind
Direction
248°
WSW
261°
W
268°
W
251°
WSW
227°
SW
240°
WSW
239°
WSW
233°
SW
233°
SW
250°
WSW
263°
W
277°
W
292°
WNW
307°
NW
311°
NW
324°
NW
332°
NNW
329°
NNW
287°
WNW
271°
W
274°
W
273°
W
268°
W
269°
W
275°
W
285°
WNW
295°
WNW
301°
WNW
314°
NW
332°
NNW
334°
NNW
336°
NNW
336°
NNW
348°
NNW
348°
NNW
351°
N
351°
N
348°
NNW
340°
NNW
334°
NNW
342°
NNW
348°
NNW
356°
N
356°
N
336°
NNW
323°
NW
308°
NW
320°
NW

Daily Forecast

Date High Low Precip. Humidity
Today
Sep 25

Rain
86 °F
60 °F
59%
39%
Monday
Sep 26

Rain
88 °F
63 °F
62%
34%
Tuesday
Sep 27

Clouds
81 °F
54 °F
0%
17%
Wednesday
Sep 28

Clouds
72 °F
57 °F
0%
25%
Thursday
Sep 29

Clouds
68 °F
56 °F
3%
39%
Friday
Sep 30

Rain
59 °F
55 °F
100%
95%
Saturday
Oct 1

Rain
71 °F
59 °F
100%
90%
Sunday
Oct 2

Rain
73 °F
62 °F
26%
70%
Monday
Oct 3

Clouds
77 °F
62 °F
0%
59%
Tuesday
Oct 4

Rain
85 °F
61 °F
36%
48%
Wednesday
Oct 5

Rain
77 °F
57 °F
36%
43%
Thursday
Oct 6

Rain
73 °F
60 °F
52%
66%
Friday
Oct 7

Clouds
78 °F
61 °F
0%
50%
Saturday
Oct 8

Clear
82 °F
59 °F
0%
42%
Sunday
Oct 9

Clear
83 °F
63 °F
0%
44%
Monday
Oct 10

Clear
85 °F
63 °F
0%
45%

Temperature 8-14 Day Outlook



Precipitation 8-14 Day Outlook






About Us
Contact Us
Site Map
Search Site
Advertise With Us
   
Murray.USLakes.info
THE LAKE MURRAY WEBSITE

Copyright 2022, Lakes Online
Privacy    |    Legal